K6OUA-11 Weather Reports


time (UTC)temp
C
wind
direction
speed
KPH
gust
KPH
rain 1hr
cm
rain 24hr
cm
rain mn
cm
humidity
%
barometer
mb
20210127123402 7 135 8.0 8.0 0.00 0.00 0.00 65 1013.1
20210127123118 7 135 3.2 9.7 0.00 0.00 0.00 65 1013.1
20210127122455 7 135 4.8 9.7 0.00 0.00 0.00 65 1013.2
20210127122156 7 135 4.8 8.0 0.00 0.00 0.00 65 1013.2
20210127121254 7 135 6.4 9.7 0.00 0.00 0.00 64 1013.2
20210127120348 7 135 4.8 9.7 0.00 0.00 0.00 65 1013.2
20210127115751 7 135 4.8 9.7 0.00 0.00 0.00 64 1013.3
20210127115144 7 135 6.4 8.0 0.00 0.00 0.00 64 1013.4
20210127114547 7 135 3.2 6.4 0.00 0.00 0.00 64 1013.6
20210127114240 7 135 3.2 8.0 0.00 0.00 0.00 64 1013.6
20210127113639 7 112 9.7 14.5 0.00 0.00 0.00 64 1013.5
20210127113407 7 112 6.4 14.5 0.00 0.00 0.00 65 1013.4
20210127112735 7 112 11.3 16.1 0.00 0.00 0.00 65 1013.4
20210127112433 7 135 12.9 17.7 0.00 0.00 0.00 65 1013.3
20210127112132 7 135 9.7 11.3 0.00 0.00 0.00 65 1013.4
20210127111836 7 112 8.0 12.9 0.00 0.00 0.00 65 1013.5
20210127110938 7 90 8.0 14.5 0.00 0.00 0.00 66 1013.4
20210127110329 7 90 6.4 12.9 0.00 0.00 0.00 66 1013.5
20210127105727 7 87 9.7 12.9 0.00 0.00 0.00 65 1013.5
20210127104531 7 126 8.0 16.1 0.00 0.00 0.00 66 1013.8
20210127104218 7 135 11.3 16.1 0.00 0.00 0.00 66 1013.5
20210127102619 7 135 8.0 14.5 0.00 0.00 0.00 65 1013.8
20210127102407 7 135 8.0 14.5 0.00 0.00 0.00 65 1013.8
20210127102113 7 135 8.0 11.3 0.00 0.00 0.00 64 1013.8
20210126194831 15 315 4.8 6.4 0.00 0.00 0.00 37 1009.6
20210126194530 14 315 3.2 6.4 0.00 0.00 0.00 37 1009.4
20210126194416 14 315 3.2 12.9 0.00 0.00 0.00 37 1009.4
20210126194228 14 315 3.2 12.9 0.00 0.00 0.00 37 1009.4
20210126193746 14 315 6.4 11.3 0.00 0.00 0.00 37 1009.6
20210126193625 14 315 6.4 11.3 0.00 0.00 0.00 37 1009.6
20210126193453 14 315 6.4 6.4 0.00 0.00 0.00 37 1009.6
20210126193329 14 315 6.4 6.4 0.00 0.00 0.00 37 1009.6
20210126193028 14 315 3.2 12.9 0.00 0.00 0.00 37 1009.7
20210126192847 14 315 9.7 9.7 0.00 0.00 0.00 38 1009.6
20210126192722 14 315 9.7 9.7 0.00 0.00 0.00 38 1009.6